AO-07 1 07530U 74089B 15091.86818647 -.00000033 00000-0 63482-4 0 9991 2 07530 101.5133 069.6137 0012398 091.5157 335.3036 12.53613123847698 FO-29 1 24278U 96046B 15091.90527514 .00000012 00000-0 51615-4 0 9992 2 24278 098.5325 071.0429 0349362 268.6101 116.1450 13.53048420919716 SO-33 1 25509U 98061B 15091.98728889 .00001262 00000-0 23641-3 0 9990 2 25509 031.4319 323.5823 0347958 125.3391 238.0273 14.29939131858503 RS-22 1 27939U 03042A 15092.86176926 .00001458 00000-0 27479-3 0 9991 2 27939 097.8341 258.1488 0012005 268.3028 091.6806 14.65909693615157 HO-68 1 36122U 09072B 15092.69356043 -.00000060 00000-0 -43517-4 0 9997 2 36122 100.2043 140.1639 0006936 293.2337 066.8046 13.16325374254526 AO-73 1 39444U 13066AE 15092.44472978 .00003358 00000-0 43799-3 0 9996 2 39444 097.7381 157.9674 0060590 024.0553 336.3468 14.79906038 72211 EO-79 1 40025U 14033R 15092.78365028 .00003420 00000-0 38927-3 0 9999 2 40025 097.9587 352.9280 0014785 071.7588 288.5238 14.86803086 42598 UO-11 1 14781U 84021B 15092.09418387 .00001385 00000-0 17990-3 0 9999 2 14781 097.8104 151.0212 0007674 327.3385 032.7352 14.82262917670758 AO-16 1 20439U 90005D 15092.77514469 .00000302 00000-0 12733-3 0 9996 2 20439 098.5359 030.0986 0011465 029.1160 029.3340 14.32514411315940 LO-19 1 20442U 90005G 15092.43044651 .00000270 00000-0 11522-3 0 9993 2 20442 098.5070 029.5446 0012206 018.3211 341.8411 14.32708612316095 AO-27 1 22825U 93061C 15092.50242249 .00000228 00000-0 10605-3 0 9990 2 22825 098.7012 042.6241 0008621 162.9006 317.0964 14.29855904122123 IO-26 1 22826U 93061D 15091.85279795 .00000262 00000-0 11833-3 0 9996 2 22826 098.6953 042.1520 0009248 157.4613 202.6977 14.30169839122176 GO-32 1 25397U 98043D 15091.84142741 .00000136 00000-0 78250-4 0 9993 2 25397 098.5120 044.7100 0001529 141.0146 271.8200 14.23530286868931 NO-44 1 26931U 01043C 15091.86215059 .00000282 00000-0 14043-3 0 9998 2 26931 067.0533 013.9703 0006336 264.0933 095.9446 14.30283714704882 SO-50 1 27607U 02058C 15092.35568676 .00002164 00000-0 32930-3 0 9993 2 27607 064.5556 070.3208 0077503 303.2243 056.1445 14.74582769660105 CO-55 1 27844U 03031E 15092.62385821 .00000489 00000-0 24193-3 0 9997 2 27844 098.6972 102.2259 0010255 153.2261 321.5512 14.21752637609701 CO-57 1 27848U 03031J 15091.98150860 .00000429 00000-0 21629-3 0 9997 2 27848 098.7068 101.4601 0009989 161.9046 262.3540 14.21405832609528 AO-51 1 28375U 04025K 15092.79721286 .00000338 00000-0 11282-3 0 9996 2 28375 098.2866 035.4351 0082374 196.4987 163.3520 14.41620210565620 CP3 1 31129U 07012N 15092.86743765 .00001519 00000-0 33693-3 0 9992 2 31129 097.9731 061.9404 0096556 187.6836 233.2755 14.55626802422169 CO-65 1 32785U 08021C 15092.20197818 .00002708 00000-0 31095-3 0 9997 2 32785 097.6583 138.5409 0012404 322.5153 129.9270 14.86586997374947 PRISM 1 33493U 09002B 15092.82966319 .00007212 00000-0 70513-3 0 9995 2 33493 098.2535 286.5805 0016125 214.0175 146.0029 14.92581789335338 SOHLA-1 1 33496U 09002E 15091.87904517 .00000973 00000-0 16581-3 0 9996 2 33496 098.1998 219.1689 0007251 054.0700 058.3925 14.71269359331958 TISAT-1 1 36799U 10035E 15092.85645701 .00005753 00000-0 63168-3 0 9993 2 36799 098.0125 192.4006 0014399 095.3704 028.1509 14.87996495255758 STUDSAT 1 36801U 10035G 15092.83086090 .00033880 00000-0 21605-2 0 9996 2 36801 098.0536 208.3175 0004936 042.3146 071.1123 15.08619386256598 ALMASAT-1 1 38078U 12006B 15090.22919962 .00075054 40943-5 13267-2 0 9997 2 38078 069.4556 076.2850 0504959 004.7458 355.8207 14.72315366163537 XATCOBEO 1 38082U 12006F 14243.34478676 .13583328 43697-5 37939-3 0 9990 2 38082 069.3815 097.0364 0033293 225.1799 135.4582 16.41261006136239 CUBEBUG-1 1 39153U 13018D 15092.79163934 .00002905 00000-0 39966-3 0 9995 2 39153 098.0189 177.3804 0018511 134.4359 225.8370 14.78963731104330 ESTCUBE-1 1 39161U 13021C 15092.76921069 .00001989 00000-0 33239-3 0 9994 2 39161 098.0726 176.3596 0009573 187.4028 172.7037 14.70957224102152 DUCHIFAT-1 1 40021U 14033M 15092.78306421 .00005072 00000-0 56403-3 0 9991 2 40021 097.9614 353.1485 0015501 073.4539 286.8396 14.87519314 42592 NANOSATCBR1 1 40024U 14033Q 15092.68623780 .00004271 00000-0 48024-3 0 9993 2 40024 097.9593 352.9029 0014616 070.1614 290.1211 14.87167563 42573 DTUSAT-2 1 40030U 14033W 15092.65499815 .00003443 00000-0 39560-3 0 9992 2 40030 097.9568 352.5944 0014049 067.3622 292.9073 14.86414905 42560 ANTELSAT 1 40034U 14033AA 15092.68799062 .00002931 00000-0 45692-3 0 9990 2 40034 097.9529 346.3697 0060849 002.9697 357.1874 14.72448999 42189 MET-2/21 1 22782U 93055A 15092.09399038 .00000065 00000-0 45493-4 0 9991 2 22782 082.5475 304.0594 0022476 171.4314 299.4369 13.83764456 90076 OKEAN-4 1 23317U 94066A 15092.51625635 .00001898 00000-0 21132-3 0 9999 2 23317 082.5391 156.5002 0019365 216.6141 275.2887 14.86481827106072 NOAA-14 1 23455U 94089A 15092.48650618 .00000067 00000-0 58042-4 0 9990 2 23455 098.7544 175.4879 0008488 298.9064 131.2518 14.14030904 44831 NOAA-15 1 25338U 98030A 15092.49731840 .00000321 00000-0 15460-3 0 9999 2 25338 098.7712 091.0912 0011249 033.8767 326.3129 14.25590999878057 RESURS 1 25394U 98043A 15091.85585392 .00000077 00000-0 51512-4 0 9990 2 25394 098.4569 049.7258 0002306 114.4750 298.6070 14.24450070869411 FENGYUN1 1 25730U 99025A 15092.63500889 .00002502 00000-0 13594-2 0 9991 2 25730 098.9388 057.5487 0020129 008.3576 041.9971 14.13131949818388 OKEAN-0 1 25860U 99039A 15092.53717741 .00001386 00000-0 20927-3 0 9994 2 25860 098.0861 060.5022 0001271 108.9688 005.9542 14.75917694844825 NOAA-16 1 26536U 00055A 15092.40316086 .00000093 00000-0 73877-4 0 9995 2 26536 098.9497 158.4278 0011577 088.1489 272.1009 14.13084951748954 NOAA-17 1 27453U 02032A 15092.45037119 .00000150 00000-0 81702-4 0 9993 2 27453 098.3355 082.2161 0012699 049.3918 310.8365 14.24866807663879 NOAA-18 1 28654U 05018A 15092.46436536 .00000253 00000-0 16332-3 0 9991 2 28654 099.1805 083.2769 0014456 168.8641 191.2852 14.12171505508387 NOAA-19 1 33591U 09005A 15092.48303540 .00000345 00000-0 21347-3 0 9991 2 33591 098.9827 042.2114 0014653 027.4359 332.7583 14.11902986316809 HUBBLE 1 20580U 90037B 15091.90868367 .00004185 00000-0 26040-3 0 9990 2 20580 028.4700 297.0210 0003129 131.6502 008.8297 15.07097209168292 ISS 1 25544U 98067A 15092.98464074 .00016257 00000-0 24179-3 0 9996 2 25544 051.6391 099.7452 0002817 214.6336 190.0722 15.55300070936337 CO-58 1 28895U 05043F 15092.05594812 .00001775 00000-0 35711-3 0 9995 2 28895 097.8227 283.8080 0017273 173.5701 186.5726 14.62626468502469 FALCON 1 30776U 07006E 15092.44946176 .00014197 00000-0 59613-3 0 9993 2 30776 035.4265 115.3722 0002645 291.2782 210.3802 15.22675426444748 MAST 1 31126U 07012K 15091.85436446 .00001018 00000-0 22925-3 0 9992 2 31126 097.9528 063.3955 0091231 173.0547 247.9770 14.55918559422386 CAPE1 1 31130U 07012P 15091.87029245 .00001368 00000-0 30647-3 0 9992 2 31130 097.9746 060.4813 0097123 192.5911 167.2860 14.55314279421787 COMPASS 1 32787U 08021E 15092.41420740 .00005374 00000-0 55931-3 0 9992 2 32787 097.6605 142.4019 0011833 307.8837 052.1310 14.90194380375225 AAUSAT2 1 32788U 08021F 15092.12431928 .00004980 00000-0 50640-3 0 9995 2 32788 097.6614 143.5082 0011346 305.7252 054.2911 14.91171909375262 DO-64 1 32789U 08021G 15092.78578175 .00012038 00000-0 10071-2 0 9990 2 32789 097.6801 153.9616 0010160 274.3006 218.4125 14.98578706375781 CO-66 1 32791U 08021J 15092.13395702 .00004056 00000-0 44308-3 0 9997 2 32791 097.6600 140.1991 0012738 315.1836 044.8351 14.88365643375003 RS-30 1 32953U 08025A 15092.73996374 .00000010 00000-0 -13620-7 0 9993 2 32953 082.5066 021.1578 0017613 244.9629 114.9625 12.43058320311235 METEOR-M 1 35865U 09049A 15092.77998508 .00000142 00000-0 83183-4 0 9993 2 35865 098.5088 135.7913 0002203 002.0374 358.0783 14.22006728287495 RS-38 1 35869U 09049E 15092.68674580 .00000081 00000-0 55554-4 0 9991 2 35869 098.5011 135.3705 0004312 345.9279 014.1767 14.22281980287527 JUGNU 1 37839U 11058B 15092.83885084 .00000530 00000-0 14069-3 0 9997 2 37839 019.9617 299.2957 0018985 295.9032 135.6203 14.12442636179559 SRMSAT 1 37841U 11058D 15092.05337502 .00000510 00000-0 13579-3 0 9994 2 37841 019.9726 329.2073 0011956 215.6546 292.4287 14.10459267179196 RAX-2 1 37853U 11061D 15092.48224139 .00008735 00000-0 54531-3 0 9999 2 37853 101.7126 266.3785 0200398 296.6470 131.0077 14.94784542185796 AUBIESAT 1 37854U 11061E 15092.10207088 .00009715 00000-0 57930-3 0 9998 2 37854 101.7166 268.8970 0196807 292.9190 186.6278 14.96743566185838 HRBE 1 37855U 11061F 15092.43362617 .00009439 00000-0 57609-3 0 9991 2 37855 101.7193 268.1972 0198933 294.4509 063.6061 14.95694207185826 RS-39 1 38051U 11062C 14288.65876392 .70201582 12497-4 27925-2 0 9995 2 38051 051.5964 324.1908 0006422 269.6897 186.8903 16.43533377153081 E-STAR 1 38079U 12006C 15016.13455217 .17990388 48979-5 52837-3 0 9992 2 38079 069.3967 125.0648 0013168 047.0341 316.5109 16.44007688156194 GOLIAT 1 38085U 12006J 15047.13271005 .15174231 50628-5 38163-3 0 9993 2 38085 069.4022 049.8202 0017770 344.8867 016.3100 16.44194733160691 HORYU-2 1 38340U 12025D 15092.16343130 .00003402 00000-0 52531-3 0 9994 2 38340 098.3051 060.1835 0011669 345.8454 014.2424 14.73989447154334 RS-40 1 38735U 12041C 15092.82764914 .00000040 00000-0 21992-3 0 9992 2 38735 082.4726 106.9717 0016649 349.2438 010.8280 12.42567495121555 PROITERES 1 38756U 12047B 15092.80282138 .00001522 00000-0 23035-3 0 9998 2 38756 098.2162 190.8333 0012447 173.1414 186.9973 14.75669210137886 BEESAT-3 1 39134U 13015E 15092.66276340 .00016084 00000-0 94869-3 0 9999 2 39134 064.8737 298.9426 0033476 260.8970 098.8869 15.10839531107284 BEESAT-2 1 39136U 13015G 15091.97878963 .00009128 00000-0 57127-3 0 9990 2 39136 064.8741 302.9412 0034322 260.8087 098.9152 15.09420926107156 LO-75 1 39382U 13064C 14295.69194059 .07301741 00000-0 36367-2 0 9993 2 39382 040.4713 030.2705 0002289 341.7175 018.4586 16.19795749470823 ZACUBE-1 1 39417U 13066B 15092.18439921 .00002835 00000-0 37480-3 0 9997 2 39417 097.7380 157.5366 0061197 025.5012 334.9198 14.79434944 73390 TRITON-1 1 39427U 13066M 15091.79421846 .00002441 00000-0 40624-3 0 9998 2 39427 097.7243 147.0128 0117256 051.5691 309.5970 14.66435379 72674 DELFIN3XT 1 39428U 13066N 15092.75443709 .00004225 00000-0 70891-3 0 9999 2 39428 097.7240 146.3685 0126108 052.9151 308.3503 14.65029698 72697 GOMX-1 1 39430U 13066Q 15092.85598468 .00002430 00000-0 45794-3 0 9996 2 39430 097.7184 141.3793 0155556 067.2938 294.4604 14.57847330 72401 MO-76 1 39436U 13066W 15092.73252908 .00031464 00000-0 23336-2 0 9991 2 39436 097.7524 168.6323 0022427 002.3136 357.8189 15.02808325 74143 LO-74 1 39440U 13066AA 15092.46526456 .00002681 00000-0 39069-3 0 9998 2 39440 097.7327 153.7803 0083109 033.4846 327.1578 14.74278872 73174 PUCPSAT-1 1 39442U 13066AC 15092.18545739 .00004005 00000-0 43641-3 0 9997 2 39442 097.7455 163.9472 0033503 016.5216 343.7084 14.88134296 72563 SHINAISAT 1 39572U 14009A 14328.13084988 .28848087 76253-5 66603-3 0 9996 2 39572 064.9728 197.0096 0013534 259.7861 100.1802 16.45181032 42403 TEIKYOSAT 1 39576U 14009E 14297.85867254 .09345816 76764-5 25176-3 0 9997 2 39576 064.9818 300.5833 0008491 317.3597 044.3862 16.45008906 37698 CO-77 1 39577U 14009F 14244.78324653 .10543803 76292-5 32273-3 0 9993 2 39577 064.9920 123.7668 0014904 269.7208 091.1897 16.43552757 29380 SPROUT 1 39770U 14029E 15092.31306614 .00002534 00000-0 31347-3 0 9998 2 39770 097.8680 190.1942 0011350 091.0473 269.2050 14.83594997 46380 POPSAT-HIP1 1 40028U 14033U 15092.81471940 .00003310 00000-0 37821-3 0 9997 2 40028 097.9622 353.0188 0015965 070.1191 290.1776 14.86650685 42584 EO-80 1 40032U 14033Y 15092.66059133 .00003290 00000-0 37879-3 0 9991 2 40032 097.9596 352.6156 0013921 066.3991 293.8686 14.86370662 42566 VELOX-1 1 40057U 14034E 15092.80124728 .00003503 00000-0 52223-3 0 9995 2 40057 098.2199 169.6713 0012782 117.8165 242.4341 14.75470685 40762 DAURIA DX 1 1 40071U 14037C 15092.76069305 .00001654 00000-0 22494-3 0 9990 2 40071 098.3630 161.0551 0009832 118.4703 241.7497 14.80219306 39637 UKUBE-1 1 40074U 14037F 15092.74925302 .00003490 00000-0 44883-3 0 9995 2 40074 098.3648 161.5971 0005959 123.6946 236.4839 14.81825676 39661 CHASQUI-1 1 40117U 98067ET 15014.73322295 .07508583 12315-4 10026-2 0 9990 2 40117 051.6189 112.4445 0004239 337.2783 022.7551 16.34635278 23368 HODOYOSHI-1 1 40299U 14070B 15092.79887463 .00006768 00000-0 32940-3 0 9993 2 40299 097.4593 175.2794 0014155 041.6016 104.7027 15.18622414 22371 CHUBUSAT-1 1 40300U 14070C 15092.79513321 .00007821 00000-0 39832-3 0 9993 2 40300 097.4564 174.7890 0023400 040.0263 108.2374 15.16825321 22344 QSAT-EOS 1 40301U 14070D 15092.79145938 .00014174 00000-0 73898-3 0 9998 2 40301 097.4532 174.2807 0033721 039.0579 109.2016 15.15574899 22319 TSUBAME 1 40302U 14070E 15092.83461806 .00006276 00000-0 35937-3 0 9995 2 40302 097.4504 173.6615 0044748 039.8582 320.5870 15.12110891 22289 FIREBIRD FU3 1 40377U 15003B 15092.60748030 .00014428 00000-0 73940-3 0 9990 2 40377 099.1234 112.1679 0163828 140.5337 220.7941 15.05726221 9172 FIREBIRD FU4 1 40378U 15003C 15092.60638098 .00014371 00000-0 73560-3 0 9998 2 40378 099.1241 112.1713 0163956 140.4423 220.8878 15.05751400 9174 GRIFEX 1 40379U 15003D 15092.61559680 .00010967 00000-0 56845-3 0 9993 2 40379 099.1244 112.1635 0164258 141.4206 219.8861 15.05389032 9175 LAMBDA-SAT 1 40458U 98067GB 15092.58533832 .00216222 00000-0 21211-2 0 9999 2 40458 051.6420 100.7025 0007294 140.9955 308.4253 15.64808430 14246 /EX
